Location: Possagno
(45.8500°N, 11.8667°E)
Time: 16:11:58
(UTC+00:00)

ISS - Visible Passes

Search period start: 23 July 2021 00:00
Search period end: 02 August 2021 00:00
Orbit: 419 x 421 km, 51.6° (Epoch: 22 July)

Date Brightness Start Highest point End Pass type
(mag) Time Alt. Az. Time Alt. Az. Time Alt. Az.
23 Jul -1.8 19:29:41 10° WNW 19:32:43 29° N 19:35:45 10° ENE visible
23 Jul -2.6 21:06:50 10° NW 21:10:05 40° NNE 21:11:44 23° ENE visible
23 Jul -1.4 22:43:41 10° WNW 22:44:40 18° WNW 22:44:40 18° WNW visible
24 Jul -2.2 20:19:32 10° NW 20:22:39 34° NNE 20:25:47 10° E visible
24 Jul -2.9 21:56:19 10° WNW 21:58:49 45° WNW 21:58:49 45° WNW visible
25 Jul -2.0 19:32:09 10° WNW 19:35:12 30° N 19:38:15 10° ENE visible
25 Jul -3.7 21:09:00 10° WNW 21:12:23 74° NNE 21:12:58 56° E visible
26 Jul -3.1 20:21:42 10° WNW 20:25:01 53° NNE 20:27:10 20° E visible
26 Jul -1.6 21:58:43 10° WNW 22:00:07 20° W 22:00:07 20° W visible
27 Jul -2.7 19:34:23 10° NW 19:37:37 41° NNE 19:40:50 10° E visible
27 Jul -3.3 21:11:14 10° WNW 21:14:20 47° SW 21:14:20 47° SW visible
28 Jul -3.8 20:23:50 10° WNW 20:27:13 75° SSW 20:28:36 32° SE visible
29 Jul -3.6 19:36:29 10° WNW 19:39:52 75° NNE 19:42:54 12° ESE visible
29 Jul -1.7 21:13:52 10° W 21:15:52 19° WSW 21:15:52 19° WSW visible
30 Jul -2.5 20:26:10 10° WNW 20:29:10 30° SW 20:30:12 25° S visible
31 Jul -3.1 19:38:39 10° WNW 19:41:55 47° SW 19:44:36 14° SE visible
01 Aug -1.2 20:29:31 10° WSW 20:30:54 12° SW 20:32:01 11° SSW visible
